Theta_e
333 325 322 324 325 317 313 311 310 312 314 311 310 310 314 325 325 322 321 321 322 317 312 313 309 308 307 306 306 306 306 307 308
335 327 322 320 317 313 311 310 309 310 310 309 308 311 323 323 324 324 321 325 323 318 315 315 313 308 308 307 307 307 307 307 307
333 328 322 318 316 312 310 310 309 309 308 307 307 311 321 323 323 323 319 319 322 317 312 311 313 309 306 305 305 305 306 305 305
331 328 321 316 314 313 312 311 308 308 307 307 307 313 322 323 322 321 317 315 317 315 311 311 311 309 305 304 304 304 304 304 304
331 327 319 315 315 313 314 309 311 307 307 306 308 312 320 321 322 319 317 315 313 314 309 307 308 309 306 304 303 303 303 303 304
331 324 318 317 319 320 317 310 309 307 306 306 309 317 320 320 320 316 317 313 311 309 306 305 305 305 306 303 303 303 303 303 303
331 321 318 325 324 324 320 312 307 306 306 307 311 317 318 319 318 315 316 312 308 306 305 304 305 304 304 303 303 303 303 303 303
330 319 322 326 326 325 323 313 306 306 306 307 312 316 317 317 314 313 313 311 306 305 304 304 305 304 304 303 302 302 303 302 303
329 317 321 323 324 325 320 311 309 308 308 307 309 313 316 314 310 308 310 309 306 304 304 304 304 304 304 303 303 301 302 302 302
326 315 320 323 322 322 318 310 308 307 308 308 308 312 315 313 308 306 305 304 305 304 304 304 304 304 304 303 303 302 301 302 302
326 314 320 322 321 322 316 309 307 307 307 307 307 308 312 311 306 304 303 303 303 303 304 304 305 304 304 304 303 303 302 303 302
324 314 318 321 321 319 316 309 305 306 306 306 306 305 305 306 304 302 302 302 302 302 303 304 304 304 304 303 303 304 303 303 303
323 313 312 315 317 315 311 306 305 305 305 305 304 304 303 302 301 301 302 302 301 303 303 304 304 304 304 304 304 304 304 304 303
323 314 309 311 313 312 309 306 305 305 305 304 304 303 302 301 300 300 301 302 301 301 303 302 303 303 303 304 304 304 304 304 304
324 315 310 309 312 312 310 305 305 305 305 304 303 302 301 300 299 300 300 301 301 301 302 303 303 303 303 304 303 303 304 304 304
324 316 310 309 310 310 309 305 305 304 304 304 301 300 300 300 298 299 300 300 301 301 302 302 303 303 304 304 304 303 303 303 304
323 317 311 309 309 309 308 304 304 304 304 303 301 298 298 299 299 299 301 300 300 301 301 302 302 304 303 304 304 303 303 302 303
324 317 312 309 308 307 307 304 304 304 303 302 302 300 301 300 299 300 301 302 301 301 301 302 303 304 304 303 304 304 303 303 303
328 320 311 309 308 308 306 304 304 305 304 303 303 305 305 302 301 301 301 302 302 301 302 303 303 303 304 304 304 304 303 303 303
327 322 312 310 307 307 305 303 303 304 304 305 303 305 305 305 305 303 303 303 303 303 302 302 304 304 304 304 304 304 304 304 303
Wind_Speed
21 20 18 18 16 14 12 9 10 12 12 12 12 16 16 16 13 15 16 14 13 13 11 11 10 10 9 9 9 8 8 9 10
22 20 19 16 14 13 12 12 12 13 14 14 14 18 20 14 14 15 15 17 15 15 14 14 13 11 11 10 11 11 10 10 10
23 21 19 16 15 13 12 13 14 15 16 15 16 17 19 14 15 15 15 17 15 15 14 14 15 13 13 12 11 12 13 12 12
23 22 20 18 18 15 14 15 16 16 17 16 18 19 19 13 13 14 16 16 15 15 15 15 15 15 15 13 13 12 13 13 12
24 23 21 20 18 17 16 17 18 19 18 18 18 18 19 14 13 12 15 16 15 15 14 15 15 16 15 14 14 13 12 13 13
25 25 23 21 20 18 19 18 19 20 20 20 20 18 14 13 10 12 15 15 14 14 14 14 14 15 15 15 14 14 13 12 12
25 26 25 22 21 22 21 21 21 21 22 22 19 16 14 12 11 14 14 13 13 13 13 13 13 13 14 14 14 13 12 13 12
29 29 28 26 25 24 23 23 23 21 24 24 17 19 16 14 13 14 13 12 12 12 12 12 12 12 13 13 14 14 13 14 14
33 33 30 30 29 28 27 25 24 23 24 23 19 19 15 12 14 15 13 12 11 11 11 11 11 11 11 12 13 15 15 14 15
36 35 33 31 31 31 30 28 28 25 25 23 21 20 17 14 14 16 13 12 11 10 10 10 10 10 11 11 12 13 14 13 13
37 37 36 32 29 31 31 30 28 27 26 25 22 22 21 15 14 16 13 11 10 9 9 9 8 9 9 9 10 10 11 11 11
40 39 40 39 40 36 34 30 30 29 27 26 24 21 20 17 15 14 13 11 9 9 8 7 7 7 8 8 8 8 8 9 10
43 43 44 43 42 38 35 34 32 30 28 26 24 21 20 18 16 14 13 12 9 8 8 6 6 6 6 6 6 6 7 8 9
44 42 44 43 41 38 35 34 33 32 30 28 25 21 19 18 16 14 13 12 9 7 7 6 4 4 4 4 4 5 7 8 9
40 40 42 40 41 39 36 37 35 33 33 29 25 23 20 18 17 16 14 13 11 9 7 6 4 2 2 3 3 4 6 7 9
40 41 41 43 43 42 39 38 37 36 33 30 25 20 19 19 18 16 15 14 12 10 8 6 5 3 1 0 2 3 5 7 9
40 40 40 42 46 44 42 41 41 37 34 31 26 17 17 19 19 18 16 15 14 12 10 8 6 4 3 1 2 3 5 7 8
44 42 39 43 47 45 45 43 43 41 37 31 18 11 8 21 22 20 18 17 15 14 12 10 8 6 5 4 3 4 5 7 8
53 46 42 47 48 47 45 43 42 39 41 36 26 18 13 14 13 23 21 19 18 16 14 12 10 8 7 6 5 5 7 8 9
48 48 45 46 47 47 44 44 43 39 39 37 34 22 14 15 9 15 24 22 20 18 15 14 12 10 9 7 7 7 8 10 11
Wind_Direction
178 171 174 173 180 189 190 169 171 155 152 144 138 119 115 105 108 106 109 106 90 91 92 88 90 87 79 79 79 74 75 79 75
187 179 180 184 191 191 182 169 168 157 146 141 138 127 109 108 102 103 106 98 91 91 90 84 83 78 76 68 71 70 60 58 65
189 185 184 189 188 196 193 171 164 158 146 144 138 131 113 112 111 116 111 104 97 93 95 93 85 83 78 72 62 64 64 58 53
191 188 190 188 191 192 182 169 163 160 148 144 139 131 113 112 110 104 112 109 101 96 94 90 86 86 84 79 75 67 65 62 56
195 188 193 190 190 190 177 173 164 160 152 144 140 132 113 111 128 135 114 111 108 100 98 96 91 85 84 82 79 76 70 69 63
194 186 188 186 183 178 176 174 168 161 153 146 135 114 118 117 134 125 118 113 110 108 104 99 96 92 87 86 81 77 73 67 64
193 185 182 174 173 170 170 171 169 161 156 150 139 135 125 126 138 129 121 116 114 108 103 98 94 90 88 84 82 78 72 69 63
193 182 175 174 173 172 173 176 164 165 161 159 147 139 141 147 140 130 125 118 115 109 104 97 89 85 82 79 76 70 64 58 56
193 184 179 180 182 179 182 172 168 171 164 163 161 144 142 148 148 140 135 124 120 113 104 96 88 80 72 68 65 62 56 51 48
194 184 180 184 188 187 183 178 176 173 172 163 162 149 151 159 155 150 146 136 127 120 110 101 92 81 73 64 61 60 56 49 45
196 184 180 184 184 192 188 186 178 173 174 169 164 164 158 165 159 154 151 143 136 126 115 106 96 86 78 72 65 61 56 49 44
196 188 184 186 186 193 189 183 180 178 175 175 171 168 168 164 162 156 155 148 146 137 126 114 104 96 85 77 71 64 55 49 39
199 195 194 193 193 194 190 186 179 181 178 177 174 174 173 170 166 164 163 161 157 153 137 124 109 92 84 78 67 57 49 40 35
206 202 200 198 196 194 191 185 185 181 179 180 178 180 179 178 177 176 174 171 173 166 151 140 128 112 91 76 57 40 38 31 24
206 205 203 199 197 194 191 188 186 186 181 181 180 185 183 186 187 186 183 183 183 183 175 166 158 139 108 82 53 29 19 20 15
207 207 204 201 199 198 193 190 188 186 188 180 182 183 189 194 197 194 193 193 195 195 190 186 180 178 175 70 28 12 2 9 7
204 213 208 204 202 198 196 194 191 190 188 186 177 177 196 203 206 204 202 204 205 205 204 203 204 207 221 251 311 334 346 350 356
209 210 213 208 206 201 201 198 197 192 186 189 179 166 196 205 214 211 210 215 214 215 214 214 218 226 241 263 292 310 324 328 338
218 207 206 212 207 204 204 200 201 200 195 188 191 188 193 183 203 213 213 218 221 222 219 221 224 236 247 270 284 299 307 316 323
219 209 202 213 211 209 207 203 203 203 205 200 192 194 195 193 190 202 210 217 220 224 226 228 228 238 249 266 279 291 298 306 313